Погода в Магуне

Тайвань     23°34′04″N   119°34′47″E
темп.,
°C
ветер,
м/с
пор.,
м/с
влажн.,
%
обл.,
%
осадки,
мм/ч
давл.,
гПа
погр.,
м
25 июля, вс
вс2523:00+28юз6987100 0.1 998316
02:00+28юз7108898 3.2 996343
05:00+28юз688698 1.3 997294
08:00+28юз6982100 5.3 998217
11:00+28юз6986100 2.3 999326
14:00+29юз81188100 4.9 998458
17:00+29юз91288100 0.4 997538
20:00+28ююз9128896 1.4 998443
26 июля, пн
пн2623:00+28юз91289100 2.3 999413
02:00+29юз91284100 4.6 997433
05:00+29юз8128397 2.2 997382
08:00+28юз7118597 4.9 998342
11:00+29юз7118596 2.0 998336
14:00+29юз81086100 3.6 996402
17:00+29юз7988100 0.4 996388
20:00+28ююз7991100 0.4 997384
27 июля, вт
вт2723:00+28ююз71092100 1.0 997378
02:00+28ююз71091100 1.6 996344
05:00+28юз6988100 1.7 996246
08:00+29ююз5685100 3.3 997141
11:00+29ю458599 0.3 996172
14:00+29ююз568490 0.3 994277
17:00+29ююз6783100 0.0 994247
20:00+29ю71085100 0.0 995236
28 июля, ср
ср2823:00+29ююз71086100 0.3 996243
02:00+29юз9128099 1.8 996270
05:00+29юз71182100 2.9 996276
08:00+29ююз71083100 6.9 997206
11:00+29ююз71182100 3.5 998244
14:00+29ююз81182100 5.2 997287
17:00+29ююз81182100 0.6 997273
20:00+29ююз8129096 0.6 998365
29 июля, чт
чт2923:00+29ююз8128898 0.8 999422
02:00+28ююз81289100 3.6 998404
05:00+28ююз81290100 3.6 998463
08:00+28юз71088100 9.5 1000332
11:00+29ююз71086100 5.3 1000290
14:00+29ююз81189100 9.9 999379
17:00+29ююз81190100 4.2 998454
20:00+28ююз81191100 7.2 1000381